Home   Weather   Santa Clara   Past weeks
Flag for Cuba

Past Weather in Santa Clara, Cuba — Yesterday and Last 2 Weeks

Now
84 °F

Warm.


Feels Like: 94 °F
Forecast: 89 / 74 °F
Wind: 6 mph from Southwest

Location: Cienfuegos - Las Villas

Current Time: Aug 23, 2019 at 8:47:09 pm

Latest Report: Aug 23, 2019 at 7:59 pm


Visibility: N/A

Pressure: 29.95 "Hg

Humidity: 79%

Dew Point: 77 °F

Location of Santa ClaraLocation

Past Weather in Santa Clara — Graph

°F

Santa Clara Temperature Yesterday

Maximum temperature yesterday: 91 °F (at 1:55 pm)
Minimum temperature yesterday: 72 °F (at 12:59 am)
Average temperature yesterday: 79 °F

High & Low Weather Summary for the Past Weeks

 TemperatureHumidityPressure
High97 °F (Aug 10, 3:50 pm)100% (Aug 10, 3:59 am)30.09 "Hg (Aug 10, 3:59 am)
Low37 °F (Aug 16, 2:51 pm)41% (Aug 10, 2:50 pm)29.89 "Hg (Aug 13, 3:50 pm)
Average80 °F83%30.01 "Hg
* Reported Aug 8 6:58 pm — Aug 23 6:58 pm, Santa Clara. Weather by CustomWeather, © 2019

Note: Actual official high and low records may vary slightly from our data, if they occured in-between our weather recording intervals... More about our weather records

Advertising

Santa Clara Weather History for the Previous 24 Hours

Scroll right to see more
 ConditionsComfort  
Time TempWeatherWind HumidityBarometerVisibility
6:58 pm
Fri, Aug 23
86 °FWarm.12 mph75%29.95 "HgN/A
5:59 pm90 °FHot.12 mph67%29.92 "HgN/A
4:59 pm90 °FHot.9 mph67%29.92 "HgN/A
3:50 pm90 °FScattered clouds.10 mph67%29.92 "HgN/A
2:50 pm90 °FScattered clouds.12 mph67%29.95 "HgN/A
1:50 pm90 °FScattered clouds.8 mph63%29.95 "HgN/A
12:50 pm90 °FScattered clouds.7 mph63%29.98 "HgN/A
11:50 am88 °FScattered clouds.6 mph66%29.98 "HgN/A
10:50 am86 °FScattered clouds.5 mph75%29.98 "HgN/A
9:50 am84 °FPassing clouds.3 mph74%29.98 "HgN/A
8:51 am82 °FScattered clouds.2 mph84%29.98 "HgN/A
7:59 am75 °FMild.2 mph100%29.98 "HgN/A
6:59 am73 °FMild.3 mph100%29.95 "HgN/A
5:58 am73 °FMild.2 mph100%29.95 "HgN/A
4:58 am73 °FMild.1 mph100%29.95 "HgN/A
3:58 am75 °FMild.3 mph100%29.95 "HgN/A
2:59 am75 °FMild.1 mph100%29.98 "HgN/A
1:58 am75 °FMild.2 mph100%29.98 "HgN/A
12:59 am75 °FMild.2 mph100%29.98 "HgN/A
11:59 pm
Thu, Aug 22
77 °FWarm.3 mph94%29.98 "HgN/A
10:58 pm77 °FWarm.2 mph94%30.01 "HgN/A
9:59 pm77 °FWarm.3 mph94%30.01 "HgN/A
8:59 pm79 °FWarm.1 mph89%29.98 "HgN/A
Weather by CustomWeather, © 2019

See weather overview